Change the Weather History Date:

Wednesday, February 5, 2014

  Actual Average Record
Temperature  
Mean Temperature 12 °F -  
Max Temperature 20 °F 4 °F 53 °F (2005)
Min Temperature 4 °F -18 °F -18 °F (1979)
Degree Days  
Heating Degree Days 52    
Moisture  
Dew Point 13 °F    
Average Humidity 85    
Maximum Humidity 93    
Minimum Humidity 74    
Precipitation  
Precipitation 0.00 in - - ()
Sea Level Pressure  
Sea Level Pressure 30.26 in    
Wind  
Wind Speed 17 mph (NNW)    
Max Wind Speed 24 mph    
Max Gust Speed 31 mph    
Visibility 5 miles    
Events Snow    
Averages and records for this station are not official NWS values.
T = Trace of Precipitation, MM = Missing Value Source: NWS Daily Summary

Daily Weather History Graph

Daily Weather History Graph

Search for Another Location

Airport or City:

Trip Planner

Search our weather history database for the weather conditions in past years. The results will help you decide how hot, cold, wet, or windy it might be!

Date:

Astronomy

Feb. 05, 2014 Rise Set
Actual Time 7:01 AM CST 5:18 PM CST
Civil Twilight 6:32 AM CST 5:47 PM CST
Nautical Twilight 6:00 AM CST 6:19 PM CST
Astronomical Twilight 5:28 AM CST 6:51 PM CST
Moon 10:14 AM CST (2/5) No Moon Set
Length of Visible Light 11h 14m
Length of Day
10h 17m
Waxing Crescent, 39% of the Moon is Illuminated
Feb 5
Waxing Crescent
Feb 6
First Quarter
Feb 14
Full
Feb 22
Last Quarter
Mar 1
New

Hourly Weather History & Observations

Time (CST) Temp. Windchill Dew Point Humidity Pressure Visibility Wind Dir Wind Speed Gust Speed Precip Events Conditions
12:56 AM - - - N/A% - - NNE 17.3 mph - N/A   Unknown
1:26 AM 17.6 °F 3.2 °F 15.8 °F 93% 29.98 in 0.8 mi NNE 15.0 mph - 0.00 in Snow Light Snow
1:43 AM - - - N/A% - - NNE 17.3 mph 23.0 mph N/A   Unknown
1:56 AM - - - N/A% - - NNE 18.4 mph - N/A   Unknown
2:56 AM 20.1 °F 4.2 °F 17.1 °F 88% 30.02 in - North 20.7 mph 27.6 mph 0.00 in Snow Light Snow
3:56 AM 20.1 °F 5.9 °F 18.1 °F 92% 30.04 in - North 16.1 mph - 0.00 in Snow Light Snow
4:37 AM 19.4 °F 4.5 °F 17.6 °F 93% 29.98 in 1.2 mi North 17.3 mph - 0.00 in Snow Light Snow
4:56 AM 19.0 °F 3.6 °F 16.2 °F 89% 30.06 in 1.2 mi North 18.4 mph - 0.00 in Snow Light Snow
5:21 AM 17.6 °F 0.9 °F 15.8 °F 93% 29.98 in 1.5 mi North 20.7 mph - 0.00 in Snow Light Snow
5:38 AM 17.6 °F 1.3 °F 15.8 °F 93% 29.99 in 1.8 mi North 19.6 mph - 0.00 in Snow Light Snow
5:47 AM 17.6 °F 0.9 °F 15.8 °F 93% 29.99 in 2.0 mi North 20.7 mph 27.6 mph 0.00 in Snow Light Snow
5:56 AM 18.1 °F 2.0 °F 16.2 °F 92% 30.08 in 2.0 mi North 19.6 mph - 0.00 in Snow Light Snow
6:56 AM 19.0 °F 3.2 °F 16.2 °F 89% 30.13 in 1.5 mi North 19.6 mph - 0.00 in Snow Light Snow
7:19 AM 19.4 °F 2.1 °F 15.8 °F 86% 30.07 in 1.5 mi North 24.2 mph 31.1 mph 0.00 in Snow Light Snow
7:23 AM 19.4 °F 3.2 °F 15.8 °F 86% 30.07 in 1.2 mi North 20.7 mph 31.1 mph 0.00 in Snow Light Snow
7:56 AM 19.0 °F 4.0 °F 16.2 °F 89% 30.18 in 1.8 mi North 17.3 mph 26.5 mph 0.00 in Snow Light Snow
8:04 AM 19.4 °F 4.1 °F 15.8 °F 86% 30.11 in 1.8 mi North 18.4 mph - 0.00 in Snow Light Snow
8:21 AM 19.4 °F 4.1 °F 15.8 °F 86% 30.12 in 1.8 mi North 18.4 mph - 0.00 in Snow Light Snow
8:56 AM 19.0 °F 4.0 °F 16.2 °F 89% 30.24 in 4.0 mi NNW 17.3 mph - 0.00 in Snow Light Snow
9:56 AM 19.0 °F 3.6 °F 15.1 °F 85% 30.29 in 4.0 mi NNW 18.4 mph - 0.00 in Snow Light Snow
10:56 AM 19.0 °F 3.2 °F 15.1 °F 85% 30.32 in 2.5 mi NNW 19.6 mph 26.5 mph 0.00 in Snow Light Snow
11:56 AM 19.0 °F 2.7 °F 15.1 °F 85% 30.33 in 2.0 mi NNW 20.7 mph - 0.00 in Snow Light Snow
12:56 PM 19.0 °F 2.7 °F 14.0 °F 81% 30.34 in 2.0 mi NNW 20.7 mph - 0.00 in Snow Light Snow
1:14 PM 19.4 °F 3.2 °F 15.8 °F 86% 30.27 in 4.0 mi NNW 20.7 mph - 0.00 in Snow Light Snow
1:56 PM 19.0 °F 3.6 °F 14.0 °F 81% 30.37 in 4.0 mi NNW 18.4 mph - 0.00 in Snow Light Snow
2:30 PM 19.4 °F 3.6 °F 12.2 °F 74% 30.31 in 7.0 mi NNW 19.6 mph 26.5 mph 0.00 in   Mostly Cloudy
2:56 PM 19.0 °F 4.5 °F 13.1 °F 78% 30.40 in 7.0 mi NNW 16.1 mph - 0.00 in   Overcast
3:30 PM 17.6 °F 3.7 °F 12.2 °F 79% 30.34 in 9.0 mi NNW 13.8 mph - N/A   Mostly Cloudy
3:56 PM 17.1 °F 3.0 °F 12.0 °F 81% 30.43 in 10.0 mi NNW 13.8 mph - N/A   Scattered Clouds
4:56 PM 16.2 °F 2.5 °F 10.0 °F 77% 30.46 in 10.0 mi NNW 12.7 mph - N/A   Clear
5:56 PM 14.0 °F 1.2 °F 9.1 °F 81% 30.50 in 10.0 mi NW 10.4 mph - N/A   Clear
6:56 PM 11.1 °F -2.4 °F 7.2 °F 84% 30.52 in 10.0 mi NW 10.4 mph - N/A   Clear
7:56 PM 8.1 °F -7.7 °F 3.0 °F 80% 30.54 in 10.0 mi NW 12.7 mph - 0.00 in   Clear
8:56 PM 6.1 °F -9.5 °F 1.0 °F 80% 30.56 in 10.0 mi NW 11.5 mph - N/A   Clear
9:56 PM 5.0 °F -9.1 °F 0.1 °F 80% 30.57 in 10.0 mi WNW 9.2 mph - N/A   Scattered Clouds
10:56 PM 5.0 °F -6.9 °F 0.1 °F 80% 30.57 in 10.0 mi WNW 6.9 mph - N/A   Mostly Cloudy
11:56 PM 4.1 °F -12.0 °F -0.9 °F 80% 30.57 in 10.0 mi WNW 11.5 mph - 0.00 in Snow Light Snow